Weather History for KRKS - February, 2012

Change the Weather History Date:

Tuesday, February 7, 2012

  Actual Average Record
Temperature  
Mean Temperature 22 °F 22 °F  
Max Temperature 31 °F 31 °F 55 °F (2015)
Min Temperature 12 °F 13 °F -29 °F (1989)
Degree Days  
Heating Degree Days 43 43  
Month to date heating degree days 291 301  
Since 1 July heating degree days 4487 5005  
Cooling Degree Days 0 0  
Month to date cooling degree days 0 0  
Year to date cooling degree days 0 0  
Moisture  
Dew Point 11 °F    
Average Humidity 70    
Maximum Humidity 92    
Minimum Humidity 47    
Precipitation  
Precipitation T in 0.01 in 0.58 in (2001)
Month to date precipitation 0.08 0.12  
Year to date precipitation 0.29 0.57  
Sea Level Pressure  
Sea Level Pressure 30.34 in    
Wind  
Wind Speed 7 mph (East)    
Max Wind Speed 10 mph    
Max Gust Speed -    
Visibility 10 miles    
Events      
T = Trace of Precipitation, MM = Missing Value Source: NWS Daily Summary

Daily Weather History Graph

Daily Weather History Graph

Search for Another Location

Airport or City:

Trip Planner

Search our weather history database for the weather conditions in past years. The results will help you decide how hot, cold, wet, or windy it might be!

Date:

Astronomy

Feb. 07, 2012 Rise Set
Actual Time 7:22 AM MST 5:39 PM MST
Civil Twilight 6:53 AM MST 6:08 PM MST
Nautical Twilight 6:20 AM MST 6:41 PM MST
Astronomical Twilight 5:47 AM MST 7:13 PM MST
Moon 5:54 PM MST (2/7) 6:52 AM MST (2/7)
Length of Visible Light 11h 15m
Length of Day
10h 17m
Full, 100% of the Moon is Illuminated
Feb 7
Full
Feb 7
Full
Feb 14
Last Quarter
Feb 21
New
Feb 29
First Quarter

Hourly Weather History & Observations

Time (MST) Temp. Windchill Dew Point Humidity Pressure Visibility Wind Dir Wind Speed Gust Speed Precip Events Conditions
12:01 AM 15.8 °F 7.2 °F 12.2 °F 86% 30.24 in 10.0 mi SE 5.8 mph - N/A   Scattered Clouds
12:54 AM 15.1 °F 2.5 °F 10.9 °F 84% 30.39 in 10.0 mi SE 10.4 mph - N/A   Clear
1:54 AM 14.0 °F 5.1 °F 10.0 °F 84% 30.39 in 10.0 mi East 5.8 mph - N/A   Clear
2:54 AM 12.9 °F 3.8 °F 9.0 °F 84% 30.42 in 10.0 mi East 5.8 mph - N/A   Partly Cloudy
3:14 AM 12.2 °F -0.2 °F 8.6 °F 85% 30.25 in 10.0 mi East 9.2 mph - N/A   Scattered Clouds
3:18 AM 12.2 °F -1.0 °F 10.4 °F 92% 30.25 in 10.0 mi East 10.4 mph - N/A   Mostly Cloudy
3:54 AM 15.1 °F 2.5 °F 12.9 °F 91% 30.41 in 9.0 mi East 10.4 mph - N/A   Overcast
4:54 AM 15.1 °F 4.2 °F 12.0 °F 88% 30.41 in 9.0 mi ENE 8.1 mph - N/A   Overcast
5:54 AM 15.1 °F 6.4 °F 12.0 °F 88% 30.43 in 10.0 mi East 5.8 mph - N/A   Overcast
6:43 AM 14.0 °F 6.5 °F 10.4 °F 86% 30.26 in 10.0 mi ESE 4.6 mph - N/A   Overcast
6:54 AM 14.0 °F 6.5 °F 10.9 °F 88% 30.45 in 10.0 mi East 4.6 mph - N/A   Overcast
7:54 AM 12.9 °F 5.2 °F 10.9 °F 92% 30.48 in 8.0 mi East 4.6 mph - 0.00 in   Overcast
8:54 AM 12.9 °F 3.8 °F 10.9 °F 92% 30.49 in 8.0 mi ENE 5.8 mph - N/A   Overcast
9:54 AM 14.0 °F 3.9 °F 10.9 °F 88% 30.48 in 6.0 mi East 6.9 mph - N/A   Overcast
10:54 AM 15.1 °F 3.3 °F 12.0 °F 88% 30.46 in 10.0 mi ENE 9.2 mph - N/A   Overcast
11:12 AM 17.6 °F 6.4 °F 12.2 °F 79% 30.25 in 10.0 mi ENE 9.2 mph - N/A   Mostly Cloudy
11:24 AM 17.6 °F 8.2 °F 12.2 °F 79% 30.24 in 10.0 mi East 6.9 mph - N/A   Scattered Clouds
11:54 AM 19.0 °F 10.0 °F 12.9 °F 77% 30.41 in 10.0 mi ENE 6.9 mph - N/A   Clear
12:54 PM 24.1 °F 18.2 °F 14.0 °F 65% 30.36 in 10.0 mi East 4.6 mph - N/A   Clear
1:54 PM 27.0 °F 21.6 °F 14.0 °F 58% 30.32 in 10.0 mi NE 4.6 mph - N/A   Clear
2:54 PM 30.0 °F 25.2 °F 12.9 °F 49% 30.29 in 10.0 mi ENE 4.6 mph - N/A   Clear
3:54 PM 30.0 °F 23.2 °F 14.0 °F 51% 30.27 in 10.0 mi North 6.9 mph - N/A   Clear
4:54 PM 28.9 °F 23.9 °F 12.9 °F 51% 30.27 in 10.0 mi North 4.6 mph - N/A   Clear
5:54 PM 25.0 °F 20.7 °F 12.0 °F 58% 30.29 in 10.0 mi North 3.5 mph - N/A   Clear
6:54 PM 19.0 °F 9.0 °F 10.9 °F 71% 30.32 in 10.0 mi WSW 8.1 mph - N/A   Clear
7:54 PM 17.1 °F 7.6 °F 10.0 °F 74% 30.35 in 10.0 mi WSW 6.9 mph - N/A   Clear
8:54 PM 16.0 °F 6.3 °F 9.0 °F 74% 30.37 in 10.0 mi WSW 6.9 mph - N/A   Clear
9:54 PM 15.1 °F 4.2 °F 9.0 °F 77% 30.37 in 10.0 mi WSW 8.1 mph - N/A   Clear
10:54 PM 14.0 °F 3.9 °F 9.0 °F 80% 30.36 in 10.0 mi West 6.9 mph - N/A   Clear
11:54 PM 14.0 °F 3.9 °F 9.0 °F 80% 30.35 in 10.0 mi WSW 6.9 mph - N/A   Clear